• In Belarus
  • List of Countries
  • For 7 days
  • Water Temperature
  • Satellite Maps
  • Weather Map
  • Weather Widgets
  • user-avatar
    Login

    Hourly Weather Kalush

    Today, 11 December, Monday

    Time Temperature Precipitation Wind Pressure Humidity
    00:00 -5°C° 0 mm 5 mps 726 mmHg 68%
    01:00 -4°C° 0 mm 5 mps 726 mmHg 66%
    02:00 -1°C° 0 mm 3 mps 725 mmHg 76%
    03:00 -2°C° 0 mm 4 mps 725 mmHg 75%
    04:00 -2°C° 0 mm 5 mps 725 mmHg 75%
    05:00 -2°C° 0 mm 5 mps 725 mmHg 74%
    06:00 -1°C° 0.1 mm 5 mps 726 mmHg 75%
    07:00 0°C° 0.1 mm 5 mps 726 mmHg 75%
    08:00 0°C° 0 mm 4 mps 725 mmHg 77%
    09:00 +1°C° 0.1 mm 4 mps 726 mmHg 77%
    10:00 +2°C° 0.1 mm 5 mps 726 mmHg 78%
    11:00 +3°C° 0.1 mm 5 mps 726 mmHg 78%
    12:00 +3°C° 0 mm 6 mps 726 mmHg 77%
    13:00 +4°C° 0 mm 6 mps 726 mmHg 76%
    14:00 +5°C° 0 mm 6 mps 726 mmHg 75%
    15:00 +5°C° 0 mm 6 mps 726 mmHg 77%
    16:00 +5°C° 0 mm 5 mps 726 mmHg 78%
    17:00 +5°C° 0 mm 5 mps 726 mmHg 80%
    18:00 +5°C° 0 mm 5 mps 726 mmHg 80%
    19:00 +5°C° 0 mm 5 mps 727 mmHg 80%
    20:00 +5°C° 0 mm 5 mps 727 mmHg 80%
    21:00 +5°C° 0 mm 5 mps 727 mmHg 80%
    22:00 +5°C° 0 mm 5 mps 727 mmHg 80%
    23:00 +5°C° 0 mm 5 mps 727 mmHg 80%

    Tomorrow, 12 December, Tuesday

    Time Temperature Precipitation Wind Pressure Humidity
    00:00 +5°C° 0 mm 5 mps 727 mmHg 79%
    01:00 +6°C° 0 mm 5 mps 727 mmHg 78%
    02:00 +5°C° 0 mm 6 mps 727 mmHg 77%
    03:00 +5°C° 0 mm 6 mps 727 mmHg 76%
    04:00 +5°C° 0 mm 6 mps 727 mmHg 75%
    05:00 +6°C° 0 mm 7 mps 727 mmHg 74%
    06:00 +7°C° 0 mm 6 mps 728 mmHg 75%
    07:00 +7°C° 0 mm 6 mps 728 mmHg 76%
    08:00 +7°C° 0 mm 5 mps 728 mmHg 76%
    09:00 +8°C° 0 mm 6 mps 728 mmHg 74%
    10:00 +9°C° 0 mm 6 mps 729 mmHg 72%
    11:00 +10°C° 0 mm 7 mps 729 mmHg 69%
    12:00 +10°C° 0 mm 7 mps 729 mmHg 69%
    13:00 +10°C° 0 mm 7 mps 730 mmHg 69%
    14:00 +11°C° 0 mm 7 mps 730 mmHg 69%
    15:00 +10°C° 0 mm 6 mps 730 mmHg 72%
    16:00 +9°C° 0 mm 6 mps 731 mmHg 75%
    17:00 +9°C° 0 mm 5 mps 731 mmHg 78%
    18:00 +8°C° 0 mm 5 mps 732 mmHg 79%
    19:00 +8°C° 0 mm 4 mps 732 mmHg 80%
    20:00 +8°C° 0 mm 4 mps 732 mmHg 81%
    21:00 +8°C° 0 mm 4 mps 732 mmHg 81%
    22:00 +7°C° 0 mm 4 mps 733 mmHg 81%
    23:00 +7°C° 0 mm 4 mps 733 mmHg 81%

    Day after tomorrow, 13 December, Wednesday

    Time Temperature Precipitation Wind Pressure Humidity
    00:00 +8°C° 0.2 mm 3 mps 733 mmHg 83%
    01:00 +7°C° 0.2 mm 3 mps 733 mmHg 85%
    02:00 +5°C° 0.2 mm 3 mps 734 mmHg 86%
    03:00 +5°C° 0.5 mm 3 mps 734 mmHg 87%
    04:00 +4°C° 0.5 mm 3 mps 734 mmHg 88%
    05:00 +3°C° 0.5 mm 3 mps 734 mmHg 89%
    06:00 +3°C° 1 mm 3 mps 735 mmHg 90%
    07:00 +2°C° 1 mm 3 mps 735 mmHg 90%
    08:00 +2°C° 1 mm 3 mps 735 mmHg 91%
    09:00 +1°C° 1 mm 3 mps 736 mmHg 92%
    10:00 +2°C° 1 mm 2 mps 736 mmHg 93%
    11:00 +2°C° 1 mm 2 mps 736 mmHg 94%
    12:00 +2°C° 0.3 mm 2 mps 736 mmHg 93%
    13:00 +3°C° 0.3 mm 1 mps 736 mmHg 92%
    14:00 +3°C° 0.3 mm 1 mps 736 mmHg 91%
    15:00 +3°C° 0 mm 1 mps 736 mmHg 92%
    16:00 +3°C° 0 mm 1 mps 736 mmHg 92%
    17:00 +2°C° 0 mm 1 mps 735 mmHg 93%
    18:00 +2°C° 0 mm 1 mps 735 mmHg 93%
    19:00 +2°C° 0 mm 1 mps 735 mmHg 93%
    20:00 +2°C° 0 mm 1 mps 735 mmHg 93%
    21:00 +1°C° 0 mm 1 mps 735 mmHg 93%
    22:00 +1°C° 0 mm 1 mps 735 mmHg 93%
    23:00 +1°C° 0 mm 1 mps 734 mmHg 93%

    14 December, Thursday

    Time Temperature Precipitation Wind Pressure Humidity
    00:00 -1°C° 0 mm 2 mps 734 mmHg 93%
    01:00 -2°C° 0 mm 2 mps 734 mmHg 93%
    02:00 -2°C° 0 mm 2 mps 733 mmHg 93%
    03:00 -2°C° 0 mm 2 mps 733 mmHg 92%
    04:00 -2°C° 0 mm 2 mps 732 mmHg 91%
    05:00 -2°C° 0 mm 2 mps 732 mmHg 90%
    06:00 -2°C° 0 mm 2 mps 732 mmHg 89%
    07:00 -2°C° 0 mm 3 mps 732 mmHg 88%
    08:00 -1°C° 0 mm 3 mps 732 mmHg 87%
    09:00 0°C° 0 mm 3 mps 731 mmHg 84%
    10:00 0°C° 0 mm 4 mps 731 mmHg 81%
    11:00 +1°C° 0 mm 4 mps 731 mmHg 78%
    12:00 +3°C° 0 mm 4 mps 730 mmHg 77%
    13:00 +3°C° 0 mm 4 mps 730 mmHg 75%
    14:00 +4°C° 0 mm 4 mps 729 mmHg 74%
    15:00 +3°C° 0 mm 4 mps 729 mmHg 76%
    16:00 +3°C° 0 mm 4 mps 729 mmHg 78%
    17:00 +1°C° 0 mm 4 mps 729 mmHg 80%
    18:00 +1°C° 0.1 mm 4 mps 728 mmHg 80%
    19:00 +1°C° 0.1 mm 4 mps 728 mmHg 80%
    20:00 +3°C° 0.1 mm 4 mps 727 mmHg 80%
    21:00 +3°C° 0.3 mm 4 mps 727 mmHg 80%
    22:00 +3°C° 0.3 mm 4 mps 727 mmHg 81%
    23:00 +3°C° 0.3 mm 4 mps 726 mmHg 82%

    15 December, Friday

    Time Temperature Precipitation Wind Pressure Humidity
    00:00 +3°C° 0.1 mm 4 mps 726 mmHg 82%
    01:00 +2°C° 0.1 mm 5 mps 725 mmHg 81%
    02:00 +2°C° 0.1 mm 5 mps 725 mmHg 81%
    03:00 +2°C° 0.1 mm 5 mps 725 mmHg 82%
    04:00 +3°C° 0.1 mm 4 mps 724 mmHg 82%
    05:00 +3°C° 0.1 mm 4 mps 724 mmHg 83%
    06:00 +4°C° 0 mm 4 mps 724 mmHg 82%
    07:00 +3°C° 0 mm 5 mps 724 mmHg 82%
    08:00 +3°C° 0 mm 5 mps 724 mmHg 81%
    09:00 +5°C° 0 mm 5 mps 725 mmHg 80%
    10:00 +5°C° 0 mm 6 mps 725 mmHg 79%
    11:00 +5°C° 0 mm 6 mps 726 mmHg 78%
    12:00 +6°C° 0.2 mm 5 mps 726 mmHg 79%
    13:00 +7°C° 0.2 mm 3 mps 726 mmHg 81%
    14:00 +7°C° 0.2 mm 2 mps 725 mmHg 82%
    15:00 +6°C° 0.9 mm 2 mps 725 mmHg 86%
    16:00 +6°C° 0.9 mm 1 mps 725 mmHg 89%
    17:00 +6°C° 0.9 mm 1 mps 725 mmHg 92%
    18:00 +5°C° 1.3 mm 1 mps 725 mmHg 94%
    19:00 +5°C° 1.3 mm 1 mps 724 mmHg 95%
    20:00 +5°C° 1.3 mm 1 mps 724 mmHg 96%
    21:00 +5°C° 0.8 mm 1 mps 723 mmHg 96%
    22:00 +5°C° 0.8 mm 1 mps 722 mmHg 97%
    23:00 +5°C° 0.8 mm 1 mps 722 mmHg 97%

    16 December, Saturday

    Time Temperature Precipitation Wind Pressure Humidity
    00:00 +5°C° 0.5 mm 1 mps 721 mmHg 96%
    01:00 +5°C° 0.5 mm 1 mps 720 mmHg 96%
    02:00 +5°C° 0.5 mm 1 mps 720 mmHg 96%
    03:00 +4°C° 0.4 mm 2 mps 720 mmHg 95%
    04:00 +4°C° 0.4 mm 2 mps 720 mmHg 94%
    05:00 +3°C° 0.4 mm 3 mps 720 mmHg 93%
    06:00 +3°C° 0.4 mm 4 mps 720 mmHg 91%
    07:00 +1°C° 0.4 mm 5 mps 721 mmHg 90%
    08:00 +1°C° 0.4 mm 6 mps 722 mmHg 88%
    09:00 +1°C° 0.2 mm 5 mps 724 mmHg 87%
    10:00 +1°C° 0.2 mm 5 mps 725 mmHg 85%
    11:00 0°C° 0.2 mm 5 mps 726 mmHg 84%
    12:00 +1°C° 0 mm 5 mps 727 mmHg 81%
    13:00 +1°C° 0 mm 4 mps 727 mmHg 78%
    14:00 +3°C° 0 mm 4 mps 728 mmHg 75%
    15:00 +1°C° 0 mm 4 mps 729 mmHg 78%
    16:00 +1°C° 0 mm 3 mps 729 mmHg 81%
    17:00 +2°C° 0 mm 2 mps 730 mmHg 84%
    18:00 +1°C° 0 mm 2 mps 731 mmHg 85%
    19:00 +1°C° 0 mm 2 mps 731 mmHg 86%
    20:00 +1°C° 0 mm 2 mps 732 mmHg 87%
    21:00 +1°C° 0 mm 2 mps 732 mmHg 87%
    22:00 -1°C° 0 mm 2 mps 733 mmHg 87%
    23:00 -1°C° 0 mm 2 mps 733 mmHg 87%
    Show more